Regional Weather Roundup
Issued by NWS Sterling, VA

Home | Current Version | Previous Version | Graphics & Text | Print | Product List | Glossary On
Versions: 1 2 3 4 5 6 7 8 9 10 11 12 13 14 15 16 17 18 19 20 21 22 23 24 25 26 27 28 29 30 31 32 33 34 35 36 37 38 39 40 41 42 43 44 45 46 47 48 49 50
500
ASUS41 KLWX 261910
RWRLWX

REGIONAL WEATHER ROUNDUP
NATIONAL WEATHER SERVICE BALTIMORE MD/WASHINGTON DC
300 PM EDT MON SEP 26 2016

Note: "FAIR" indicates few or no clouds below 12,000 feet
with no significant weather and/or obstructions to visibility.
 TC=TEMPERATURE CELSIUS

 * =Non NWS site. Station does not report precipitation (e.g. rain,
    snow, etc.), thunder, or fog.

DCZ001-MDZ009-015-VAZ040>042-051-053>054-262000-
WASHINGTON METRO

CITY           SKY/WX    TMP DP  RH WIND       PRES   REMARKS
WASHINGTON NAT CLOUDY    70  61  73 S13       30.07F
DULLES         CLOUDY    66  58  75 S10G22    30.06F
ANDREWS AFB    CLOUDY    67  59  74 S10       30.06F
FT BELVOIR     CLOUDY    69  60  72 SE8       30.06F
QUANTICO       CLOUDY    70  61  73 S18       30.07F
COLLEGE PARK*  CLOUDY    64  59  82 S9        30.07F
LEESBURG*      CLOUDY    68  63  83 S17G24    30.06F
MANASSAS*      CLOUDY    68  61  77 S10       30.06F
GAITHERSBURG*  CLOUDY    66  55  68 S15       30.10F

$$

MDZ006>007-011-014-262000-
BALTIMORE METRO

CITY           SKY/WX    TMP DP  RH WIND       PRES   REMARKS
BWI AIRPORT    CLOUDY    65  60  84 S6        30.07F
MD SCIENCE CTR   N/A     68  58  70 MISG      30.08F
MARTIN STATE   CLOUDY    70  61  73 S14       30.09F
ANNAPOLIS      CLOUDY    70  57  63 S9G20     30.08F
FORT MEADE*    CLOUDY    64  59  82 S5        30.10F

$$

MDZ012-015-019>023-262000-
MARYLAND EASTERN SHORE

CITY           SKY/WX    TMP DP  RH WIND       PRES   REMARKS
OCEAN CITY     SUNNY     74  57  55 S7        30.11F
SALISBURY      PTSUNNY   74  54  49 S9        30.10F
BAY BRIDGE AP* CLOUDY    70  55  60 MISG      30.08F
CAMBRIDGE*     CLOUDY    70  54  56 S5        30.09F
EASTON*        CLOUDY    72  54  53 S7        30.12F

$$

MDZ017>025-262000-
SOUTHERN MARYLAND

CITY           SKY/WX    TMP DP  RH WIND       PRES   REMARKS
PATUXENT RIVER CLOUDY    70  56  61 S6        30.09F
ST INIGOES     CLOUDY    71  57  61 S7        30.09F
LEONARDTOWN*   CLOUDY    68  55  64 CALM      30.11F

$$

MDZ003>005-262000-
NORTH CENTRAL MARYLAND

CITY           SKY/WX    TMP DP  RH WIND       PRES   REMARKS
FREDERICK*     CLOUDY    68  61  77 S9        30.07F
HAGERSTOWN APT LGT RAIN  67  58  72 SE15G23   30.01F

$$

MDZ501>502-262000-
WESTERN MARYLAND

CITY           SKY/WX    TMP DP  RH WIND       PRES   REMARKS
OAKLAND*       MOSUNNY   73  59  60 SW7       30.02F
CUMBERLAND*    SUNNY     79  63  57 E5        29.98F

$$

VAZ025>031-262000-
SHENANDOAH VALLEY

CITY           SKY/WX    TMP DP  RH WIND       PRES   REMARKS
WINCHESTER*    PTSUNNY   73  61  64 SE14G22   30.00F
FRONT ROYAL*   MOCLDY    77  64  65 S7        29.99F
LURAY*         FAIR      75  64  69 S9G20     29.99F
NEW MARKET*    MOCLDY   N/A N/A N/A SW13G23   29.98F
STAUNTON*      CLOUDY    70  63  78 S7        30.04F
WAYNESBORO*    CLOUDY    67  62  82 SE5       30.05F

$$

WVZ021-048>050-054>055-262000-
EASTERN WEST VIRGINIA PANHANDLE

CITY           SKY/WX    TMP DP  RH WIND       PRES   REMARKS
MARTINSBURG    CLOUDY    67  60  78 SE12      30.00F
PETERSBURG*    MOSUNNY   84  65  52 S10G17    29.92F

$$

VAZ036>039-050-262000-
CENTRAL FOOTHILLS

CITY           SKY/WX    TMP DP  RH WIND       PRES   REMARKS
CHARLOTTESVILL CLOUDY    69  61  75 S8        30.05F
CULPEPER*      CLOUDY    70  62  75 S8        30.06F
ORANGE*          N/A     68  63  83 SE6       30.08F
GORDONSVILLE*  CLOUDY    68  63  83 S6        30.05F
WARRENTON*     CLOUDY    69  56  63 S9        30.05F

$$

VAZ055>057-262000-
NORTH AND CENTRAL PIEDMONT

CITY           SKY/WX    TMP DP  RH WIND       PRES   REMARKS
FREDERICKSBRG* CLOUDY    70  61  75 S10       30.06F
STAFFORD*      CLOUDY    69  61  75 SE6       30.10F

$$

NCZ024-NYZ072-PAZ021-071-VAZ022-071-262000-
OTHER REGIONAL OBSERVATIONS

CITY           SKY/WX    TMP DP  RH WIND       PRES   REMARKS
NEW YORK CITY  MOSUNNY   71  49  45 VRB5      30.13F
PHILADELPHIA   CLOUDY    72  48  42 S12       30.09F
PITTSBURGH     CLOUDY    70  60  70 NW12      29.95S
ROANOKE        CLOUDY    68  65  90 SE8       30.07F
RICHMOND       CLOUDY    71  60  68 S7        30.07F
RALEIGH        PTSUNNY   73  63  70 SE7       30.08F

$$

ANZ530>537-262000-
MARINE OBSERVATIONS

STATION/POSITION TIME  TEMP    WIND        PRES
                       AIR SEA DIR/SP/G
                 (UTC) (F)     (DEG/KT/KT) (MB)
THOMAS PT LIGHT  1900   70 74  170/ 19/ 21 1019.6F
BALT KEY BRIDGE  1842   69     170/ 10/ 13 1018.3F
COVE POINT       1842   69     200/ 10/ 13 1019.5F
LEWISETTA        1842   71 74  170/  7/ 10 1018.8F
SOLOMONS ISLAND  1842   70 76  150/  8/ 11   N/A
PINEY POINT      1848          190/ 10/ 13   N/A

$$





USA.gov is the U.S. government's official web portal to all federal, state and local government web resources and services.